Starlink 4255

operational
NORAD ID: 53003 Int'l Des: 2022-076 Owner: SPXS Country: US Constellation: starlink
LEOCIRCULAR

Über Starlink 4255

Beschreibung wird geladen...

Live-Position

3D-Globus wird geladen...

Nächste Überflüge

Höhenverlauf

Altitude vs Time

uPlot chart will show altitude changes over time

Zweizeiliger Elementsatz

1 53003U 22076T 25352.58577817 -.00001151 00000-0 -54242-4 0 9994
2 53003 53.2191 98.2080 0001234 91.8924 268.2210 15.08840073190607
Epoch: 18. Dez. 2025 • Age: 16 hours

Aktueller Status

Höhe 545.3 km
Geschwindigkeit 7.60 km/s
Subsatellitenpunkt 52.62°N, 14.5°E
Startdatum 7. Juli 2022
Alter 3.4 years
Typ internet

Technische Details

Klassifizierung Payload
Masse 297.00 kg
Trockenmasse 275.00 kg
Gesamtmasse 297.00 kg
Länge 0.20 m
Durchmesser 2.80 m
Spannweite 9.00 m
Form Box + pan
Hersteller SPXS
Bus-Typ Starlink
Phasenstatus In Orbit
Besitzer/Staat SPXS/US

Große Konstellationen

Loading constellations...